RH
58 62 67 76 75 72 73 70 68 65 65 68 67 65 64 60 60 62 59 59 59 64 70 67 71 80 82 82 78 71 69 71 72 72 70 68 68 68 68 68 68 67 66 65 62 56 48 42 39 39 39 40 40 39 39 39 40 41 41 43 45 48 51 54 57 60 62 63 63 63 63 62 61 60 60 62 63 64 67 70 74 77 80 83 85 87
61 63 70 80 79 78 79 76 73 68 69 73 72 71 70 63 62 65 63 60 59 62 68 67 71 84 91 92 87 75 68 69 70 70 67 62 63 66 69 72 73 74 75 76 78 77 73 67 60 56 52 50 48 46 44 43 43 42 41 42 42 42 42 43 44 47 50 53 57 60 62 64 64 64 64 65 64 63 62 61 62 65 66 68 70 72
65 64 76 86 82 81 83 82 76 70 73 79 78 77 74 66 63 67 67 62 60 62 65 65 69 86 102 104 97 80 65 67 69 64 61 58 62 68 70 71 72 73 73 73 75 78 79 79 76 73 69 65 62 58 55 52 50 47 45 44 43 42 41 41 41 41 42 43 44 46 49 52 55 58 61 63 64 64 64 63 63 63 63 62 61 61
68 69 84 92 87 86 87 86 79 72 78 83 83 81 76 70 65 66 67 63 64 65 65 65 66 86 109 110 106 92 70 66 66 56 53 54 63 75 76 73 72 71 70 68 68 70 72 76 78 78 77 75 72 70 66 62 58 55 53 52 50 49 47 46 45 43 42 41 40 39 40 41 42 45 47 50 53 55 57 59 61 63 64 64 62 61
71 74 90 97 93 90 90 89 81 76 82 87 89 85 77 74 70 67 66 64 67 68 68 66 61 81 111 111 105 99 80 71 71 63 59 56 63 79 84 81 81 77 70 65 64 64 68 74 77 79 80 80 80 79 76 71 66 62 60 59 58 57 56 54 52 50 47 45 44 43 42 42 41 41 41 41 41 42 43 45 47 50 52 54 55 57
77 85 98 102 98 95 92 91 85 81 84 90 94 88 79 78 74 70 70 68 67 67 68 71 64 71 100 113 106 96 81 81 92 94 86 70 61 70 78 81 87 89 81 70 63 60 63 69 73 75 78 80 82 83 82 78 75 73 69 64 61 58 57 57 56 55 55 54 54 52 50 49 47 46 45 44 42 40 38 37 37 38 38 40 41 42
86 98 106 104 102 99 94 93 90 86 84 88 92 87 82 81 76 75 78 71 67 64 65 77 75 60 74 102 110 99 89 93 103 107 104 96 85 81 83 84 89 94 92 83 76 71 69 70 71 73 74 76 78 79 79 79 79 79 78 75 71 67 63 59 57 56 55 56 56 56 56 55 55 55 55 54 51 47 45 42 41 41 40 41 41 40
94 105 109 106 105 102 95 95 94 90 86 85 84 83 84 83 80 83 80 70 67 63 63 81 82 56 53 78 92 96 102 106 106 104 100 101 104 102 100 99 97 97 95 90 86 84 85 85 83 80 76 74 75 75 75 76 77 79 80 80 80 79 76 71 66 61 58 56 55 55 55 55 56 58 59 60 58 56 55 53 52 52 51 50 50 49
99 106 109 107 106 103 98 96 95 94 90 85 83 82 84 84 84 84 75 71 71 61 64 84 82 57 50 62 71 82 98 106 110 113 106 95 96 104 108 107 103 101 101 99 94 89 88 88 88 88 84 78 74 72 73 73 73 74 76 78 79 80 80 80 78 75 70 66 62 59 56 56 55 55 56 57 57 57 58 58 58 58 58 57 57 56
100 105 107 106 105 101 97 96 97 96 90 87 86 85 86 86 84 80 73 75 73 59 64 79 75 60 52 56 65 74 85 95 104 114 116 105 98 103 111 110 105 103 103 104 103 98 94 89 88 92 96 93 83 75 71 71 71 72 73 76 78 79 78 78 78 78 77 76 74 71 69 67 65 63 61 59 58 57 56 57 57 57 58 58 59 59
103 104 103 103 101 97 96 96 96 94 90 90 91 91 92 88 85 82 77 77 72 62 66 71 65 59 52 51 61 69 75 82 87 97 108 112 109 107 109 109 108 108 107 106 106 105 103 100 96 95 99 102 99 89 78 71 69 70 71 74 76 79 80 79 78 77 77 77 77 78 80 81 80 79 76 73 71 68 64 62 60 58 56 55 56 56
104 102 100 102 101 97 97 97 95 94 93 97 100 100 97 92 91 87 77 74 72 66 69 67 59 54 50 48 52 56 59 60 63 73 87 103 110 107 103 102 104 109 110 109 107 105 106 107 106 103 99 99 102 101 93 84 77 71 67 68 70 74 77 79 80 79 79 79 78 79 80 82 84 84 84 84 84 83 80 76 72 69 65 62 61 59
106 104 101 100 100 100 102 101 97 95 97 102 105 102 97 95 95 86 75 74 74 70 69 65 56 49 45 41 39 39 39 37 40 48 59 73 84 88 86 82 85 92 98 100 101 102 103 103 103 104 105 104 102 103 102 98 94 85 74 66 64 66 67 71 75 78 81 80 80 80 79 79 80 79 80 83 86 89 90 89 86 81 77 73 70 67
100 102 99 96 98 100 100 101 98 96 97 99 98 96 93 94 90 79 71 71 71 70 66 58 49 41 34 28 26 26 24 24 28 31 35 41 48 55 59 58 59 64 70 76 83 90 96 97 96 94 96 100 102 104 105 103 103 100 92 82 74 70 66 63 63 68 73 76 76 76 77 78 79 78 78 78 80 83 87 90 90 89 87 84 80 77
91 96 99 99 100 100 98 99 100 98 93 88 87 88 86 85 81 72 67 66 65 61 53 43 34 28 24 20 21 23 23 25 26 23 24 26 28 33 37 41 43 45 47 50 54 64 75 84 92 94 92 89 90 95 101 105 106 104 101 97 90 87 84 76 68 63 64 67 69 69 70 72 74 77 78 79 80 80 80 82 83 84 85 85 85 85
92 99 105 100 98 106 107 102 99 94 87 82 82 84 80 75 73 69 63 57 51 40 30 27 24 20 21 21 23 27 28 28 25 22 23 23 23 25 25 28 31 33 36 36 37 41 47 56 69 82 89 88 84 83 86 93 100 104 106 104 99 96 95 91 85 78 72 69 67 65 64 64 65 68 70 74 76 77 76 75 74 74 75 76 77 79
92 100 110 104 96 103 106 99 95 90 85 83 80 76 73 68 65 62 51 38 31 24 19 20 21 22 22 23 27 32 30 28 27 25 23 21 20 20 20 21 23 25 28 29 31 32 34 37 43 52 64 72 76 76 76 77 80 86 92 96 98 98 97 95 92 91 88 83 77 69 65 63 62 61 63 65 67 69 69 69 69 70 71 71 72 73
91 93 106 109 97 94 98 95 92 88 85 81 74 68 65 60 53 46 35 25 22 20 19 20 21 22 23 24 28 30 27 27 27 25 23 22 21 19 18 18 19 20 22 24 26 26 26 29 31 34 40 47 55 61 65 67 68 69 70 72 77 81 86 89 90 92 95 97 95 85 77 73 69 65 62 60 59 59 59 61 65 69 72 74 75 75
94 88 94 105 101 95 94 91 86 82 77 72 68 64 60 51 39 30 24 23 22 20 18 19 20 21 23 25 27 26 24 23 22 22 22 22 21 21 20 19 18 18 19 20 22 22 22 22 23 25 27 30 35 40 45 50 53 57 58 58 58 60 64 70 73 77 82 92 101 101 95 90 87 82 76 70 64 61 60 61 63 65 67 70 71 73
93 85 85 96 100 93 87 82 77 73 68 66 65 59 49 37 27 22 21 23 23 20 18 18 18 19 22 27 28 25 22 21 21 21 22 22 22 22 22 21 21 20 20 20 20 21 22 21 20 20 20 21 22 25 28 32 35 38 41 43 44 45 47 51 55 58 60 66 79 90 95 95 95 94 90 86 80 76 74 72 71 71 70 69 68 69
94 88 84 88 89 86 81 74 69 67 66 63 57 45 34 27 23 21 20 22 24 21 20 19 16 17 25 28 26 22 21 21 22 22 22 22 23 22 22 22 22 23 23 23 22 22 23 22 21 20 19 19 18 19 20 22 25 28 31 33 33 33 34 36 39 43 45 47 52 61 72 80 86 90 92 93 91 90 89 86 84 84 82 78 74 71
97 89 81 79 77 77 76 71 67 65 61 52 42 32 26 24 24 22 20 22 26 27 29 25 17 20 30 30 23 21 22 22 21 23 23 23 22 22 21 20 20 21 22 23 22 22 22 22 21 21 20 20 20 20 20 20 22 24 26 29 30 31 31 31 31 32 33 35 36 39 45 52 61 70 78 85 89 93 96 96 94 92 91 89 87 84
93 83 75 71 68 68 69 67 64 57 47 38 32 29 28 28 28 27 25 25 26 32 39 33 23 27 34 32 27 26 27 26 26 26 27 26 26 26 25 23 21 20 20 21 20 20 20 20 20 20 21 22 23 23 23 24 24 24 25 27 28 29 29 29 30 30 30 30 30 30 31 33 37 42 49 57 65 74 81 86 89 90 92 96 99 101
84 76 69 63 60 62 65 63 56 47 37 32 31 31 32 32 33 32 32 31 29 35 43 39 33 35 35 30 29 29 29 30 30 30 30 30 30 30 30 28 26 24 22 21 21 20 19 19 19 19 20 21 23 23 24 25 25 26 27 27 29 30 29 29 30 30 31 30 30 29 29 29 29 30 32 35 39 45 51 57 62 68 74 81 90 98
77 71 65 60 56 55 56 53 46 38 32 31 34 36 38 39 39 38 38 37 34 36 42 42 38 35 33 29 26 25 25 27 28 29 30 30 30 30 30 29 29 29 27 25 24 22 21 20 20 20 21 22 23 23 24 24 24 25 26 27 29 31 32 32 32 32 32 32 32 32 31 30 29 28 29 30 31 33 35 38 41 44 48 54 62 72
71 69 66 62 57 51 46 41 35 28 25 27 33 37 41 43 44 43 41 40 37 35 38 43 38 32 31 30 25 23 23 23 23 24 24 25 26 26 27 28 29 30 30 28 27 26 25 24 23 22 23 24 24 24 24 25 25 25 25 25 27 29 32 33 34 34 34 34 35 34 33 32 31 30 30 30 30 31 32 34 35 36 38 40 43 47
66 66 65 60 55 50 44 37 30 24 23 27 31 33 36 40 41 42 42 40 38 35 37 40 36 31 32 30 25 24 25 24 24 25 25 25 23 22 22 23 25 26 28 29 30 29 28 27 26 26 26 26 25 25 25 26 26 26 26 26 26 27 28 30 32 34 34 34 34 35 35 35 33 32 32 31 31 31 31 32 33 35 36 37 38 40
65 64 61 56 51 48 44 37 31 27 27 30 32 31 32 34 35 37 38 37 35 33 34 34 32 30 30 27 26 26 26 26 28 29 30 28 25 23 20 19 20 21 22 24 27 28 29 29 29 29 29 29 28 28 28 27 27 27 28 29 29 28 26 26 28 30 31 32 31 31 33 34 34 33 32 32 32 32 32 32 32 33 34 36 37 39
63 59 55 49 46 47 47 41 35 33 34 35 36 34 32 31 30 31 31 30 30 30 29 27 27 27 26 24 24 24 22 23 25 28 30 30 28 25 21 17 16 16 17 19 21 24 25 27 29 30 31 31 32 32 31 29 28 28 29 30 31 31 29 28 27 27 28 29 30 30 30 30 31 32 31 31 31 32 32 33 33 33 34 35 36 38
59 54 50 44 42 47 51 46 39 37 38 38 39 37 33 30 27 27 27 26 26 27 24 22 23 23 22 21 22 21 20 20 21 23 26 27 25 23 18 15 14 14 14 14 15 17 20 22 24 26 28 30 32 33 34 33 31 30 29 29 30 31 31 31 31 30 29 28 28 29 29 30 31 31 32 31 31 30 31 31 32 33 34 35 36 37
56 50 46 41 38 43 50 46 40 38 38 38 38 35 31 28 25 24 23 22 21 22 21 20 20 19 19 19 19 20 20 19 19 21 23 23 20 16 13 13 12 11 10 10 10 11 12 14 16 18 20 22 24 27 30 33 34 33 32 31 30 30 30 30 31 33 33 33 31 30 30 30 31 33 34 35 34 33 32 31 32 32 33 34 35 37
53 48 44 39 35 38 43 41 36 35 34 34 33 29 26 23 21 20 19 18 19 19 19 19 19 18 18 18 19 20 20 19 18 19 20 19 16 13 10 10 10 9 8 8 7 7 8 9 10 11 13 14 16 18 21 25 28 31 32 32 32 32 32 32 32 32 33 34 34 34 33 32 31 32 33 35 36 37 37 36 35 34 34 34 35 36
51 47 43 37 32 32 34 33 30 29 28 27 24 22 20 19 17 17 18 19 19 18 18 18 17 16 15 16 17 17 17 16 15 16 16 15 12 10 10 9 9 9 8 8 7 7 8 8 8 9 9 10 11 13 15 17 20 23 26 28 30 31 33 34 34 34 33 34 34 34 34 34 34 34 34 34 34 35 36 37 37 37 37 37 37 37
49 44 38 32 27 25 26 25 23 21 21 19 17 16 16 16 16 17 19 21 21 19 17 14 13 13 13 12 12 11 10 10 11 13 14 12 10 10 10 10 10 9 9 8 8 8 8 8 8 8 8 9 10 10 11 12 14 16 18 20 22 24 27 29 30 31 31 32 32 32 32 32 32 33 33 33 33 33 33 33 34 35 36 36 37 38
42 36 30 26 23 20 18 18 16 15 15 14 14 14 14 15 15 16 18 19 19 15 13 11 10 10 10 10 9 8 7 7 8 10 10 10 9 9 9 9 10 9 9 8 8 8 8 8 8 8 8 8 9 9 10 10 11 12 13 14 16 18 19 21 23 25 25 25 25 26 26 27 27 27 27 27 27 27 26 26 26 26 27 28 29 31
33 28 24 21 19 17 15 13 13 13 12 12 13 13 13 13 13 12 12 14 13 10 8 8 8 9 9 8 8 7 7 6 7 9 9 9 8 8 8 8 8 8 8 8 7 8 8 8 8 8 8 8 8 8 8 8 9 9 10 12 13 14 15 16 17 18 20 20 20 20 20 21 21 21 20 19 18 17 16 15 15 15 15 15 16 17
26 23 21 18 15 14 12 11 12 13 13 12 11 10 9 9 9 8 8 8 9 9 8 8 8 8 9 9 8 7 6 6 7 8 9 8 8 7 7 7 7 7 7 7 7 7 7 7 7 7 8 8 8 8 7 7 7 8 9 10 11 12 13 14 15 16 17 18 19 19 19 19 17 15 13 12 11 10 10 9 9 9 9 9 9 9
22 19 17 14 12 12 11 11 11 11 10 9 8 8 8 7 7 7 6 6 7 7 7 7 7 7 7 7 7 7 6 6 6 7 7 7 7 7 6 6 6 6 6 6 6 6 7 7 7 8 8 8 8 8 7 7 7 8 9 10 11 11 12 12 13 14 15 15 16 16 16 15 14 12 10 8 8 7 7 8 8 8 8 8 8 9
16 14 13 13 12 12 11 10 9 8 7 6 6 7 6 6 6 5 5 5 5 6 5 5 5 5 5 5 5 5 5 5 6 6 6 6 6 6 6 6 6 6 6 6 6 6 7 7 8 8 8 8 8 8 7 7 8 8 9 10 11 11 12 12 12 12 12 12 11 10 10 9 8 8 7 7 7 7 7 7 7 8 8 8 8 9
12 12 12 12 11 10 9 8 8 7 6 6 6 5 5 4 5 4 4 4 4 5 5 4 4 4 4 4 4 4 4 4 5 6 6 6 6 7 6 6 6 6 6 6 6 6 6 7 7 8 8 8 7 7 7 7 8 8 9 10 11 11 11 11 11 10 10 9 8 7 7 7 6 6 6 6 6 6 6 7 7 7 8 8 8 8
10 11 10 9 8 8 8 7 6 6 5 5 5 4 4 4 4 4 4 4 4 4 4 4 4 4 4 4 4 4 4 5 5 5 6 6 7 7 7 7 7 6 6 7 6 6 7 7 7 7 7 8 7 7 7 7 8 9 10 10 10 10 10 10 9 8 7 7 6 6 6 6 6 5 6 6 6 6 6 6 7 7 7 8 8 8
8 8 7 7 6 6 6 5 5 5 5 5 4 4 4 4 4 4 4 4 4 4 4 4 4 4 4 4 4 4 4 5 5 5 6 6 6 7 7 7 7 7 7 6 6 7 7 8 8 8 8 8 8 8 8 8 9 11 11 10 9 8 8 7 6 6 6 5 5 5 5 6 5 5 6 6 6 6 6 6 6 6 7 7 7 8
7 6 6 6 5 5 4 4 4 4 4 4 4 4 4 4 3 3 3 3 4 4 3 4 4 4 4 4 4 4 4 4 5 5 5 5 5 5 6 7 7 7 7 7 7 7 7 8 8 9 9 8 9 9 9 9 10 10 9 8 7 6 6 5 5 5 5 5 5 5 5 6 5 5 5 5 6 6 6 6 6 6 6 7 7 7
7 6 5 5 4 4 4 4 4 4 4 4 3 3 3 3 3 3 3 3 4 4 3 4 4 4 4 4 3 4 4 4 4 4 5 5 5 4 5 5 6 6 7 7 7 7 7 7 7 8 8 8 8 8 8 8 8 7 6 6 5 5 5 5 5 5 5 5 5 5 5 6 6 6 6 6 6 6 7 7 7 6 6 6 6 7
6 6 5 4 4 4 4 3 4 4 4 4 4 3 3 4 4 4 4 3 4 4 4 4 4 4 4 4 3 4 4 4 4 4 4 4 4 4 4 4 4 5 5 6 6 6 6 6 6 6 6 6 6 6 6 6 6 5 5 5 5 5 5 5 5 5 5 6 6 6 6 6 6 6 6 6 6 6 6 7 7 7 7 7 7 7
6 5 4 4 4 4 4 4 4 5 5 4 5 4 4 5 4 4 4 4 4 4 4 4 4 4 4 4 4 4 4 4 4 4 4 4 4 4 4 4 4 5 5 5 5 5 5 5 5 5 5 5 5 5 5 5 5 6 6 5 5 5 5 5 5 5 5 6 6 6 6 6 6 6 6 6 7 6 6 6 6 7 7 7 7 7
5 4 4 4 4 4 4 5 5 5 5 5 4 4 4 4 4 5 4 4 4 4 4 4 4 4 4 4 4 4 4 4 4 4 4 4 4 4 4 4 4 4 4 5 5 5 5 5 5 5 5 5 5 5 5 5 5 6 6 5 5 5 5 5 5 5 6 6 6 6 7 6 7 7 7 7 7 6 6 6 7 7 7 7 7 7
4 4 4 4 5 5 5 5 5 5 6 5 4 4 4 4 4 5 4 4 4 4 4 4 4 4 4 4 4 4 4 4 4 4 4 4 4 4 4 4 4 4 4 5 5 5 5 5 5 5 5 5 5 5 5 5 6 5 5 5 5 5 5 5 5 5 6 6 6 7 7 7 7 7 7 7 7 7 7 6 6 7 7 7 7 8
4 4 4 4 5 5 5 5 4 5 6 6 6 6 5 4 5 4 4 4 4 4 4 4 4 4 4 4 4 4 4 4 4 4 4 4 4 4 4 4 4 5 5 5 5 5 5 5 5 6 6 6 6 6 6 5 5 5 5 5 5 5 5 5 5 6 6 7 7 6 7 7 7 7 7 7 7 7 7 7 7 7 7 7 7 8
4 4 4 4 4 4 5 4 4 4 5 5 5 5 4 4 4 4 4 4 4 4 3 3 3 4 4 4 3 3 4 4 4 4 4 4 4 4 5 4 4 5 5 5 5 5 5 5 6 5 5 5 5 6 6 5 5 5 5 5 5 5 5 6 6 7 7 7 7 7 7 8 8 7 7 7 7 7 7 7 7 7 7 8 8 8
5 4 4 4 4 4 5 4 4 4 4 4 4 4 4 4 3 3 3 3 3 3 3 3 4 4 4 4 4 3 4 4 4 4 4 4 4 4 4 4 5 5 5 5 5 5 5 5 5 5 5 5 5 5 5 5 5 5 5 5 5 6 6 7 7 7 8 7 7 7 8 8 8 8 7 7 7 7 7 7 7 7 7 8 8 8
Wind_Speed
49 49 50 51 53 54 54 54 54 55 55 57 58 57 57 55 55 55 52 49 46 45 47 46 46 50 52 52 52 49 50 52 52 52 52 52 51 52 53 53 53 53 53 53 52 53 54 56 59 60 62 65 67 68 70 72 74 76 78 80 82 86 88 90 92 93 94 96 97 98 99 100 101 101 102 102 103 105 106 107 108 110 112 113 114 115
51 50 51 53 54 55 55 56 56 56 57 59 60 60 60 58 56 57 56 52 49 46 47 47 46 51 54 55 55 53 53 55 55 54 54 52 51 52 51 52 51 51 51 50 50 50 50 52 55 57 60 62 64 65 66 68 70 72 73 74 76 79 81 83 86 88 90 92 95 97 98 99 100 101 101 102 103 104 104 105 106 108 110 112 114 115
52 52 53 55 55 55 57 58 58 58 58 61 63 63 63 62 59 59 60 56 53 50 49 48 46 50 55 58 60 59 56 57 57 56 55 52 51 53 52 51 50 50 51 51 51 51 51 51 52 54 56 59 62 64 66 67 69 70 71 71 73 75 76 78 79 81 83 86 89 91 93 95 97 98 100 102 103 104 104 105 106 107 109 110 111 112
54 53 53 56 57 57 58 60 61 60 61 63 65 66 66 66 63 62 62 60 57 55 53 51 46 47 54 57 62 66 62 60 61 60 58 53 50 53 53 52 51 51 52 53 53 53 53 54 54 54 55 56 59 62 66 68 68 69 69 70 72 74 75 75 77 79 80 82 83 84 86 88 90 92 95 97 99 101 102 104 105 107 109 110 110 110
55 54 54 57 59 59 61 63 65 64 64 66 68 69 69 69 69 66 65 62 60 59 58 56 48 45 51 55 61 69 68 65 66 65 63 56 51 53 54 54 54 54 55 55 55 55 55 55 56 56 57 57 58 60 63 65 66 68 70 72 73 74 75 75 77 78 79 80 81 81 82 84 85 87 89 91 92 95 97 99 101 103 105 106 106 107
55 56 56 58 60 61 63 66 68 68 67 68 71 73 72 72 73 71 69 66 62 60 60 61 55 46 48 55 58 64 67 68 69 70 69 64 59 58 57 56 55 56 57 58 58 58 57 57 57 58 59 59 60 62 63 63 64 66 68 72 74 75 76 76 77 79 80 80 80 81 82 83 84 85 86 88 90 92 93 95 96 97 98 99 100 101
55 57 59 60 61 64 66 68 71 72 72 72 73 75 75 76 76 75 74 71 67 63 59 62 65 54 46 53 59 59 61 65 67 70 72 71 68 66 63 59 57 57 59 60 62 62 61 60 61 61 61 61 62 64 65 65 65 66 67 68 70 72 74 76 78 80 81 81 81 82 82 83 84 85 86 88 90 91 92 93 93 93 94 95 96 97
55 57 61 62 63 66 68 70 74 76 76 76 77 78 78 79 79 78 77 75 72 68 60 63 72 64 48 51 58 58 59 62 65 66 69 72 73 71 70 66 62 61 60 61 63 65 65 64 64 64 65 65 65 66 67 67 68 68 69 69 69 70 71 73 76 78 80 81 82 83 84 84 85 86 87 89 91 92 92 92 92 93 93 94 95 96
56 58 61 63 65 68 71 73 76 78 80 80 81 82 82 83 82 81 79 78 76 71 63 66 75 70 57 53 56 57 59 62 65 65 65 69 73 75 75 73 69 66 65 64 64 66 68 68 67 67 68 69 69 69 70 70 70 70 70 71 71 71 72 73 74 75 76 78 80 81 83 84 86 87 89 91 92 92 93 93 93 94 94 95 96 96
58 60 63 64 67 70 73 75 78 81 82 84 85 85 87 87 85 85 83 82 81 75 69 71 75 73 65 59 58 61 62 62 66 68 67 68 71 75 78 78 76 73 70 69 68 68 69 71 71 71 71 72 73 74 73 73 73 73 72 72 72 73 74 75 75 76 76 77 77 78 79 81 83 86 88 90 92 93 93 94 94 95 95 96 96 97
59 62 65 67 70 72 75 78 80 83 84 86 88 89 90 90 89 89 87 86 86 80 76 77 77 76 70 64 64 67 67 66 67 70 72 71 71 74 77 79 80 79 77 76 75 74 73 74 74 74 74 75 77 77 77 77 76 76 75 74 75 75 76 77 77 78 79 79 79 78 79 80 81 83 84 86 88 90 92 93 94 95 96 97 97 97
60 63 67 69 72 75 77 80 83 85 87 89 91 92 93 93 93 92 90 89 89 86 83 82 80 79 76 71 71 72 71 70 69 70 73 74 74 75 77 79 80 81 82 82 81 81 80 79 79 78 78 78 79 81 81 81 80 80 79 78 78 78 79 79 79 80 80 81 81 82 81 81 82 83 83 83 85 86 88 90 92 93 94 95 96 96
61 64 68 72 75 77 80 83 85 87 89 91 93 94 95 95 96 95 92 92 93 90 89 87 84 83 80 77 76 76 75 73 72 72 74 75 76 77 79 80 80 82 83 84 85 85 86 86 85 84 83 82 82 83 85 85 85 84 83 82 82 82 82 82 82 82 83 83 84 84 84 84 85 85 85 85 86 86 87 88 89 90 91 91 92 93
60 63 68 73 76 79 82 85 86 88 90 92 93 94 95 97 99 98 95 95 95 94 92 90 88 87 84 81 79 78 77 75 74 75 75 76 77 78 79 80 81 82 83 85 85 86 87 89 89 89 88 87 86 86 87 88 88 88 88 87 86 86 86 86 86 85 86 86 87 87 87 87 87 87 88 88 89 90 90 91 91 90 90 90 90 91
64 64 68 73 77 80 83 86 88 90 91 91 92 94 95 97 99 99 97 97 98 96 93 90 89 88 86 83 81 80 78 77 77 76 76 77 77 77 78 79 80 81 83 84 86 86 87 88 90 91 92 91 91 90 90 91 90 91 91 91 90 90 90 90 90 90 89 90 91 91 90 90 90 90 90 90 91 92 93 94 94 94 93 93 92 92
70 69 71 76 80 82 85 88 90 92 93 92 93 94 95 96 98 100 99 98 99 97 92 88 88 87 85 84 83 82 81 79 78 76 76 77 77 77 78 78 80 80 81 83 85 87 88 88 89 91 93 94 94 94 94 94 94 94 94 95 94 94 94 94 94 94 94 94 94 94 94 94 94 94 94 94 94 95 95 96 96 96 96 96 96 96
75 72 74 78 82 85 88 90 92 94 95 95 95 95 96 96 97 99 99 97 97 96 90 86 85 84 83 83 82 81 81 79 78 77 77 77 77 77 77 78 79 79 80 81 83 85 87 88 89 90 92 94 95 95 96 97 97 97 97 98 97 97 97 97 97 97 98 99 98 98 98 98 98 98 98 99 99 98 98 97 97 97 97 97 98 98
82 77 76 80 85 87 90 92 94 96 96 97 96 96 96 97 97 99 99 96 94 93 89 84 81 79 78 78 78 78 78 78 78 77 77 77 76 76 76 77 78 78 79 80 81 83 85 87 89 90 91 92 94 96 97 98 99 99 99 100 100 100 99 99 99 100 101 102 103 103 102 102 102 103 103 103 102 102 100 99 99 99 99 99 100 100
87 84 80 83 88 90 92 94 95 96 96 96 96 96 97 98 97 97 97 95 93 91 87 82 77 74 73 75 76 75 75 75 76 75 75 75 75 75 75 76 77 77 78 79 79 81 83 85 87 88 90 91 92 94 96 98 99 100 100 101 101 101 101 101 101 102 103 104 105 106 106 106 106 107 107 107 106 105 103 102 102 102 102 103 103 103
91 91 86 86 90 92 94 95 95 96 96 96 97 98 98 97 96 94 93 93 93 91 86 81 75 69 70 74 76 75 74 73 73 73 74 74 74 74 74 74 75 76 77 78 78 79 81 83 84 86 88 89 90 91 93 95 97 99 100 100 101 101 101 102 102 103 104 105 106 107 108 108 109 110 111 111 110 109 107 107 106 106 106 107 107 107
93 95 92 89 91 94 96 97 96 97 97 97 98 97 96 95 94 92 89 89 91 90 87 84 76 69 71 76 76 75 74 73 72 72 73 73 73 73 73 73 73 74 75 76 77 78 79 81 82 84 85 87 88 89 91 93 94 96 98 99 99 100 100 100 101 102 104 105 107 108 109 109 110 111 112 112 112 112 112 111 110 110 110 111 111 111
95 96 95 93 92 94 96 97 97 98 99 98 97 96 95 94 93 92 88 87 90 90 89 88 81 73 76 80 78 76 76 75 74 73 73 73 73 73 73 73 73 73 74 75 76 77 78 79 81 82 84 85 87 88 90 92 93 94 95 97 98 98 98 99 99 100 102 103 105 106 108 109 110 111 112 113 113 113 114 114 114 113 113 113 114 115
97 98 97 95 93 93 95 97 98 98 98 97 95 94 94 93 92 93 90 88 88 88 90 91 85 79 80 82 80 79 78 77 76 75 75 75 75 75 75 75 75 74 74 74 75 75 76 77 78 80 81 84 86 87 89 90 92 94 95 96 97 97 97 97 97 98 99 100 102 103 105 106 108 109 110 111 112 113 114 114 115 115 115 115 116 117
99 99 99 96 93 92 95 98 100 99 97 96 94 93 93 93 93 93 93 92 90 88 90 92 88 84 84 83 80 79 78 77 76 75 75 75 75 76 76 76 76 76 75 75 75 75 75 75 76 77 79 81 84 86 88 89 91 93 94 95 96 96 96 96 97 97 97 98 99 101 102 103 104 106 107 108 109 110 112 113 114 115 115 116 116 117
100 101 101 99 95 93 93 96 98 97 95 94 93 92 92 93 93 93 93 93 92 89 90 92 89 87 87 85 82 80 78 76 75 75 75 75 75 76 77 77 77 76 76 75 75 75 76 76 76 76 77 79 82 84 86 88 89 91 92 93 94 95 95 96 96 96 97 98 98 99 100 101 102 103 104 105 106 108 109 110 111 112 113 114 115 116
100 100 101 102 101 98 96 96 96 95 92 92 92 93 93 93 94 94 94 94 93 91 90 92 92 89 89 89 85 82 80 78 76 75 75 75 76 76 76 76 76 76 76 76 76 77 77 78 78 77 77 78 80 82 84 86 87 89 90 91 92 93 94 95 95 95 96 97 97 98 99 100 101 101 102 103 104 105 106 107 108 109 110 111 112 114
99 99 101 102 102 102 101 99 98 96 93 92 93 94 94 94 95 96 96 95 95 93 92 93 94 91 90 91 89 86 84 82 80 79 79 78 78 77 76 75 75 75 75 75 76 77 78 78 79 78 79 79 80 81 82 83 85 86 87 89 91 92 92 93 94 94 95 95 96 97 98 99 100 100 101 102 103 104 105 105 106 107 108 109 110 111
99 99 101 101 101 101 101 100 100 99 97 96 96 96 96 96 97 97 97 97 96 95 94 94 95 94 93 92 91 89 87 86 84 84 84 84 83 81 79 76 74 74 75 75 76 76 77 78 78 79 79 80 80 81 82 83 84 84 86 87 89 90 91 91 92 93 94 94 95 95 96 97 98 99 100 100 101 103 104 105 105 106 107 107 108 109
100 100 100 100 99 99 101 102 101 101 100 99 99 99 98 98 98 98 98 98 97 97 96 95 95 95 94 93 92 90 88 86 86 86 87 87 87 86 84 79 76 76 76 76 76 76 77 77 77 78 79 80 81 81 83 84 84 84 85 86 87 89 90 90 90 91 92 93 94 95 95 95 96 97 98 99 100 101 103 104 105 106 106 107 108 109
101 101 101 100 98 97 100 102 102 101 101 100 100 100 100 99 99 99 99 98 98 98 98 96 96 95 94 93 92 90 89 87 86 86 87 88 88 87 85 81 80 78 77 76 76 76 76 77 77 78 78 79 80 81 82 84 85 85 85 86 87 88 89 89 90 91 91 92 92 93 94 95 96 97 98 99 100 101 102 104 105 106 107 108 109 110
103 102 102 102 99 97 99 101 102 101 101 100 99 100 100 99 99 98 98 99 98 98 98 97 97 95 94 93 91 90 90 89 89 89 89 90 89 87 84 82 81 80 78 76 75 74 75 76 77 77 78 78 79 80 82 83 84 86 86 86 86 87 88 88 89 90 92 93 93 93 93 94 95 96 98 100 101 102 103 104 105 106 108 109 110 111
104 103 103 104 101 98 99 100 100 100 99 98 98 99 99 99 98 98 98 99 99 98 97 97 97 95 94 93 91 90 91 91 90 90 91 91 90 88 85 83 82 81 79 77 75 74 73 74 76 76 77 78 79 79 80 81 82 84 85 85 86 87 87 88 89 90 91 93 94 94 95 95 95 96 97 99 101 103 105 106 106 107 109 110 111 112
105 105 105 105 103 99 99 100 100 98 98 97 97 98 98 98 98 97 97 98 99 99 98 96 95 94 92 91 90 89 90 90 91 91 92 91 89 87 86 84 83 81 80 78 76 74 74 74 75 75 75 76 77 78 79 80 80 81 82 83 84 85 86 88 89 90 91 92 93 94 95 95 96 97 98 99 100 102 104 106 108 109 110 111 113 114
106 107 106 106 104 101 99 100 99 98 98 97 97 97 97 97 96 95 95 96 98 99 98 96 94 92 91 90 90 88 87 87 89 90 91 90 87 85 85 84 83 81 80 78 76 74 74 74 73 73 73 73 75 76 77 78 78 78 79 80 80 81 83 85 87 89 90 91 92 93 93 94 95 96 97 99 100 101 102 104 106 108 110 111 113 114
106 106 106 105 104 102 100 100 100 98 98 98 97 96 96 95 94 93 92 93 96 97 95 94 93 92 91 90 89 88 85 84 85 87 88 87 85 84 83 82 82 81 79 77 75 74 74 73 72 71 72 72 73 74 75 75 75 75 76 77 77 78 79 81 83 85 87 88 90 90 91 92 94 95 96 97 99 100 101 101 103 105 106 109 111 113
105 105 105 104 104 103 101 100 100 100 99 98 97 96 95 94 93 92 90 91 94 95 93 91 90 90 91 90 89 87 85 83 83 86 86 85 83 83 82 81 81 80 78 76 74 73 73 72 71 71 71 71 72 73 73 73 72 72 72 72 73 74 75 77 79 80 82 84 86 87 88 90 92 94 95 95 96 97 98 98 99 100 102 103 105 108
104 104 104 103 103 103 102 100 99 100 100 99 97 95 93 92 91 90 89 88 90 92 91 90 88 87 88 89 88 87 84 81 81 84 85 84 83 82 81 80 80 79 77 76 74 73 72 71 70 70 70 70 71 72 72 70 69 68 68 70 71 72 73 75 76 77 79 81 83 85 86 88 90 92 93 93 92 92 93 93 94 95 96 98 99 101
102 102 102 102 102 102 102 101 99 98 98 97 96 95 93 91 90 89 88 86 85 86 87 87 86 84 84 85 85 84 82 79 78 80 81 80 80 80 79 78 78 78 76 75 73 72 71 71 70 69 69 69 70 70 69 68 67 66 66 68 69 71 72 73 73 75 77 79 81 83 84 87 89 90 90 90 89 88 88 88 89 90 91 93 94 95
100 99 100 100 100 101 101 100 99 98 96 95 94 94 93 91 89 88 86 84 83 84 83 83 83 82 82 81 80 79 77 75 73 76 78 76 74 75 76 75 75 75 74 73 71 70 69 69 68 67 67 67 67 67 66 65 64 64 64 65 67 68 69 70 71 72 74 77 79 81 82 84 86 86 86 85 85 84 83 83 84 85 87 88 89 90
98 98 98 99 99 99 100 99 99 98 96 94 94 93 91 89 89 87 84 80 80 81 80 79 79 79 80 80 78 75 74 72 70 71 74 73 70 70 72 71 71 72 71 70 69 67 65 66 66 66 65 65 65 64 63 62 61 61 62 63 64 65 66 68 69 70 72 74 77 78 78 80 81 81 81 80 81 81 80 80 80 81 82 83 85 85
97 97 97 97 97 97 98 97 97 95 93 92 91 91 89 86 84 84 81 78 76 76 76 76 75 74 75 76 74 72 70 69 69 68 70 69 67 66 68 68 68 68 68 67 66 64 63 63 64 64 64 64 63 62 61 60 60 60 61 62 63 64 65 66 67 68 70 72 73 73 74 75 76 77 76 76 77 77 77 76 76 77 78 79 80 81
98 97 97 96 96 95 95 95 93 91 90 88 86 86 85 83 80 78 77 75 74 74 73 72 71 70 71 71 70 69 67 66 66 66 66 66 65 64 63 64 64 65 64 64 63 62 60 60 62 63 62 62 62 61 61 60 59 60 62 63 63 63 64 64 64 65 67 68 68 68 69 71 72 72 71 71 72 73 73 73 73 73 74 74 75 76
100 99 98 97 95 94 94 93 91 87 85 85 83 81 80 80 77 75 72 71 71 72 71 69 68 68 68 68 67 66 65 63 62 62 64 64 64 63 61 60 61 61 60 60 60 60 59 58 59 61 61 60 60 60 60 59 59 60 62 62 62 61 61 60 61 62 64 64 64 65 65 67 68 68 68 67 67 68 69 70 70 70 70 71 72 73
101 100 98 96 95 93 92 90 89 86 84 84 83 80 78 77 76 74 71 69 68 70 70 68 67 66 67 67 65 64 63 61 60 60 61 62 62 61 59 58 58 57 57 57 57 57 57 56 57 59 59 58 58 58 57 57 58 59 59 59 59 58 57 57 58 60 60 61 61 62 62 63 64 65 65 65 64 65 65 66 68 68 69 69 69 70
100 99 97 95 93 92 91 90 88 88 86 85 84 82 80 78 78 76 74 72 71 71 70 69 67 65 65 65 64 63 62 61 59 58 59 59 59 59 57 56 56 55 55 56 55 55 55 54 55 55 56 55 55 55 55 55 55 55 56 56 57 56 55 56 56 56 57 58 59 60 60 60 60 61 62 62 62 62 62 63 64 65 66 67 67 68
100 98 96 94 91 90 89 88 87 86 86 85 83 81 80 79 78 77 76 73 71 70 69 68 66 64 63 64 63 62 61 61 59 57 57 57 57 57 55 54 54 54 54 54 54 54 53 53 53 52 52 52 52 52 53 53 52 53 54 55 54 53 54 54 54 54 54 55 56 57 57 58 58 58 59 59 59 60 60 60 60 61 62 64 65 66
98 96 93 90 89 87 86 85 84 82 82 82 80 77 76 75 75 75 75 73 70 67 65 64 63 61 61 61 61 59 59 59 58 57 56 56 56 55 54 53 53 53 53 53 52 52 51 51 51 51 50 51 50 50 51 51 50 51 53 53 52 51 52 52 51 51 52 52 53 54 54 55 55 56 56 57 57 57 57 57 58 58 59 61 62 63
96 93 90 87 86 85 84 83 80 78 79 80 80 78 76 74 72 72 73 72 69 67 64 62 60 58 57 58 58 56 55 56 56 55 54 55 54 54 53 53 52 52 52 51 50 50 50 50 50 49 49 49 49 49 49 48 48 49 50 49 49 50 50 49 49 50 50 50 51 51 52 52 53 53 54 54 54 54 55 55 55 56 57 58 59 61
95 93 90 87 84 82 81 79 77 74 74 76 77 77 76 73 70 69 68 67 67 65 63 61 59 57 55 54 54 53 52 52 53 53 52 52 52 52 51 51 51 50 50 49 49 49 48 49 48 48 48 47 47 47 47 47 47 47 46 46 46 47 48 48 48 48 48 49 49 48 49 50 50 51 51 51 52 52 52 53 53 54 54 56 57 58
95 93 90 87 84 81 79 79 78 75 72 72 73 73 72 71 68 67 65 64 64 63 62 60 59 57 56 54 53 52 51 51 51 51 51 50 49 49 49 50 49 49 48 48 48 48 47 47 47 47 47 46 45 45 45 45 45 45 44 44 44 45 46 47 47 46 47 47 47 47 47 48 49 49 49 49 50 50 50 51 51 51 52 53 54 55
95 93 91 88 85 83 81 80 79 77 74 72 72 71 70 69 69 68 67 65 63 62 61 59 58 57 56 55 54 52 51 50 50 49 49 49 48 48 48 48 48 48 48 47 47 47 46 46 46 46 45 44 44 44 44 44 44 43 43 43 43 44 45 46 45 44 45 45 45 45 45 46 47 48 48 48 48 49 49 49 50 50 51 51 52 53
Wind_Direction
312 313 315 315 316 317 317 317 316 315 316 315 315 316 316 316 317 316 316 315 315 315 314 314 316 313 310 308 304 300 295 290 287 285 285 285 285 285 286 285 285 285 286 286 286 285 282 279 275 272 269 267 264 262 261 260 259 258 257 256 256 255 255 254 254 254 254 254 254 254 254 254 254 254 254 254 254 254 253 253 253 254 254 254 254 254
312 313 315 315 315 316 316 315 315 315 315 315 314 315 315 315 316 316 315 315 314 314 313 313 315 315 312 308 304 299 294 290 288 288 287 288 289 288 287 286 285 284 283 282 281 280 279 277 274 272 270 268 266 265 264 262 261 260 259 258 257 257 257 256 256 256 255 255 254 254 254 254 254 255 255 255 255 255 254 254 254 254 254 254 254 254
312 314 315 314 315 315 314 314 313 314 315 314 313 313 313 314 315 315 314 314 314 313 312 311 315 317 313 309 305 300 296 294 293 292 290 291 292 291 289 287 286 283 281 278 275 274 272 271 269 268 266 265 265 264 263 262 261 261 261 260 259 259 258 258 257 257 256 255 255 255 255 255 255 255 255 255 255 255 255 255 255 255 255 255 255 255
311 314 315 313 313 313 313 312 311 313 314 313 312 312 313 313 314 314 314 314 314 313 311 310 313 317 313 310 306 302 300 299 298 296 293 293 294 292 290 288 286 284 281 277 275 273 271 270 268 267 265 264 262 261 260 260 259 260 260 260 260 259 259 258 257 257 256 256 255 255 255 255 255 255 255 255 255 256 255 255 255 255 255 256 256 256
311 314 313 311 311 311 311 310 310 312 313 312 312 311 312 313 313 313 313 313 313 312 312 310 310 313 312 308 306 304 304 304 303 300 297 294 291 289 288 287 285 284 281 278 276 274 273 272 271 269 267 265 264 262 261 260 259 258 258 257 257 257 257 257 257 257 257 257 257 256 256 255 255 255 255 255 255 255 255 255 255 255 256 256 257 257
311 312 311 310 310 310 310 310 310 311 312 312 311 311 312 312 313 313 313 312 312 311 312 311 307 305 308 307 303 303 305 306 306 304 300 297 292 288 286 284 284 283 282 280 278 276 275 274 272 271 269 267 266 265 263 262 260 259 257 257 256 256 256 256 256 256 256 256 256 256 256 255 255 255 255 255 255 255 255 255 255 255 255 256 257 257
310 310 309 309 309 309 309 309 309 310 310 311 310 310 311 312 312 313 312 311 310 310 311 312 306 300 303 306 302 303 304 303 303 302 302 300 296 292 289 286 284 282 281 281 280 279 277 275 274 272 270 268 267 265 264 264 262 261 260 259 259 258 257 256 256 255 255 255 255 256 256 255 255 255 256 255 255 255 255 255 255 255 256 256 256 256
309 308 307 308 309 308 309 309 308 309 310 310 310 310 311 311 312 312 310 310 310 309 311 312 304 298 300 302 301 303 302 299 297 297 298 297 296 294 292 289 286 283 280 279 278 278 277 275 273 272 271 269 267 266 265 264 263 262 262 261 261 260 259 258 257 257 256 256 255 255 255 255 255 255 255 255 255 255 255 255 255 255 255 255 255 256
308 306 306 308 308 308 308 308 308 308 309 310 310 311 311 311 311 310 309 310 309 308 311 309 303 300 300 299 299 299 297 295 294 293 292 291 292 292 291 289 287 284 282 279 276 275 275 274 273 272 271 270 268 267 266 265 263 262 262 261 261 261 260 260 259 259 258 258 257 256 256 256 255 255 255 255 255 255 255 255 255 255 255 255 255 255
307 306 306 307 307 307 307 307 308 308 309 310 310 311 311 310 310 310 310 309 307 307 310 306 302 301 300 299 299 296 294 293 292 290 289 287 287 288 288 288 287 285 282 280 278 275 274 273 273 272 271 270 269 267 266 265 264 263 262 261 261 260 260 259 259 259 259 259 258 258 257 257 256 256 256 256 256 256 256 256 255 255 255 255 255 255
307 307 306 307 306 307 307 307 308 308 309 310 310 311 310 310 310 310 309 308 307 308 308 305 302 301 299 299 297 294 292 290 288 287 287 285 284 283 284 284 284 284 282 280 278 276 274 272 271 270 270 269 269 268 267 266 265 264 263 262 261 260 260 260 259 258 258 258 258 258 258 258 258 257 257 257 257 257 257 257 256 256 256 256 256 256
307 307 306 306 306 307 307 308 308 309 310 310 310 310 310 310 310 309 308 308 307 307 307 304 303 301 300 299 296 293 291 289 286 285 284 283 282 281 279 279 279 280 280 279 278 276 274 272 270 269 268 267 268 268 268 266 265 264 263 262 261 261 260 260 259 259 258 258 258 258 257 258 258 258 258 258 258 258 258 258 258 257 257 257 257 257
306 306 307 306 307 308 308 308 309 309 310 310 310 309 309 309 308 307 308 307 306 306 305 304 303 301 300 299 296 293 291 288 286 284 282 281 280 278 277 276 275 275 276 276 275 275 275 273 272 270 268 266 265 266 266 266 266 265 264 262 262 261 260 260 259 259 259 259 258 258 257 257 257 258 258 258 259 259 259 259 259 258 258 258 258 258
304 305 306 306 307 308 307 307 308 309 309 308 308 308 308 308 306 306 307 306 305 304 303 303 302 301 300 298 296 294 292 289 287 284 282 280 278 276 275 273 273 272 272 271 271 272 272 272 272 271 270 268 266 265 264 264 265 265 264 263 262 262 261 260 260 259 259 259 259 258 257 257 257 257 257 257 257 258 258 259 259 259 259 259 259 259
305 306 307 306 307 307 307 307 307 307 306 306 307 307 307 306 306 306 306 304 303 303 302 303 302 301 300 299 297 295 293 291 288 285 282 280 278 276 275 273 272 270 269 269 269 268 268 268 269 269 269 268 267 265 264 263 263 262 263 263 262 262 261 261 260 260 259 259 259 258 258 258 257 257 257 256 256 256 256 257 258 258 259 259 259 259
308 309 308 308 308 307 306 307 307 306 306 306 306 306 306 305 305 304 303 303 302 302 302 302 302 301 301 300 299 297 294 292 289 286 284 282 280 278 275 274 272 270 269 268 268 267 267 266 266 266 266 266 266 265 265 264 262 261 260 260 260 260 260 260 260 260 260 259 259 259 258 258 258 257 257 256 256 256 256 256 256 257 258 258 259 259
308 309 309 308 308 307 306 307 307 306 307 307 306 306 305 304 303 303 302 302 302 301 302 302 302 301 301 300 298 296 293 292 289 287 284 282 281 279 277 276 274 272 270 269 268 267 266 266 265 264 264 265 265 265 264 264 263 262 261 260 259 258 258 258 258 258 259 259 259 259 259 258 258 258 258 257 257 257 257 257 257 257 258 258 258 259
308 309 309 308 307 307 307 307 307 307 306 306 306 305 305 304 304 303 303 303 302 301 301 302 301 301 300 298 296 293 292 290 288 287 285 283 282 280 278 277 275 274 272 271 269 268 267 266 266 265 264 264 264 264 264 263 263 263 262 262 261 260 259 258 258 257 257 257 258 259 259 259 259 259 259 258 258 258 258 258 258 258 258 258 258 258
308 309 309 309 308 308 308 307 306 306 306 305 306 306 306 305 305 304 303 303 302 301 301 301 301 301 301 298 295 293 292 290 289 288 287 285 284 282 280 278 277 275 274 272 270 269 268 267 266 266 265 264 264 263 263 263 263 263 262 262 262 261 261 260 259 258 258 257 256 257 257 258 258 259 259 259 259 259 259 258 258 258 258 258 258 258
308 309 311 311 309 308 308 307 307 306 306 306 307 307 306 305 304 304 304 304 303 302 303 302 302 303 302 299 297 295 293 292 292 291 290 288 286 284 283 281 279 277 276 274 272 270 269 268 267 266 266 266 265 264 264 264 264 264 264 263 263 262 261 261 260 260 259 259 258 257 256 256 256 257 258 259 259 259 259 259 259 259 258 258 258 258
309 310 311 311 310 309 308 308 308 307 307 307 307 307 306 305 304 304 305 305 305 305 306 305 304 306 305 300 297 296 296 295 294 292 291 289 288 286 284 282 280 279 277 276 274 272 270 269 268 268 267 267 267 266 266 265 265 265 265 265 264 263 263 262 261 261 260 260 260 259 258 257 257 256 257 257 258 258 258 258 258 258 259 259 259 259
309 310 310 311 310 309 309 308 308 308 308 308 308 307 307 306 306 306 307 307 307 307 308 306 306 309 306 301 300 299 298 297 296 294 293 291 289 287 285 283 281 279 278 276 275 273 272 271 270 269 268 268 267 267 267 267 266 266 265 265 265 264 264 263 262 261 261 261 260 260 260 260 259 258 257 257 257 257 258 258 258 258 258 258 259 260
309 310 310 310 310 310 309 309 309 308 308 309 309 308 308 308 308 308 308 308 307 308 307 306 307 308 304 301 301 301 299 298 297 295 294 292 290 289 287 285 283 281 279 278 276 275 273 272 271 270 270 269 268 267 266 266 267 267 267 266 266 265 265 264 263 262 262 261 261 261 261 261 260 260 260 259 259 258 258 258 258 258 258 258 258 259
310 310 310 310 311 311 310 310 309 309 310 310 310 309 309 308 308 308 308 308 308 308 306 304 306 305 302 300 300 299 298 297 296 294 292 291 289 288 286 284 283 282 281 280 279 277 276 274 272 270 269 268 268 267 266 266 265 266 266 266 266 266 266 266 265 264 263 262 262 262 261 261 261 261 261 261 260 260 259 259 259 259 259 258 258 258
311 311 311 311 311 311 311 310 309 309 310 310 309 309 308 308 308 307 307 307 307 306 304 303 304 302 301 300 299 298 298 296 295 293 291 290 288 287 285 284 284 283 282 281 280 279 277 275 273 271 269 268 267 267 267 266 266 265 265 265 266 266 266 266 266 265 265 264 263 263 262 262 262 262 262 261 261 261 261 260 260 260 260 259 259 259
311 312 312 312 313 313 312 311 309 309 310 310 309 308 308 307 306 305 305 305 305 304 303 302 302 301 301 300 299 299 298 297 295 293 291 289 288 286 285 284 284 283 282 281 280 279 277 276 275 273 271 270 269 268 267 267 267 266 266 266 265 265 265 265 265 264 264 264 263 263 263 263 263 262 262 262 262 261 261 261 261 260 260 260 260 260
312 312 312 312 313 313 312 312 310 310 311 310 309 308 307 306 305 304 304 303 303 303 302 301 300 300 300 299 299 300 299 299 298 296 295 293 290 288 286 284 283 282 281 279 278 277 276 276 275 274 273 271 270 269 268 267 267 266 266 266 266 265 265 264 264 264 263 263 262 262 262 262 262 262 262 262 262 262 262 262 261 261 261 261 260 260
312 313 312 312 313 313 312 312 311 311 311 310 309 308 307 305 304 303 302 302 301 301 301 300 299 299 299 299 299 299 299 299 298 297 296 295 293 291 289 287 285 284 281 279 277 276 275 274 274 273 273 272 271 270 269 268 268 267 266 266 266 266 265 265 264 264 264 263 263 262 261 261 261 261 261 261 261 261 261 261 261 261 261 261 261 260
312 312 312 312 312 313 312 312 311 311 311 310 309 307 306 305 304 303 302 301 301 300 300 300 299 299 299 299 299 299 299 298 297 296 296 295 294 293 292 291 289 287 284 282 280 278 276 274 273 272 272 271 271 270 270 269 268 267 266 266 266 266 266 266 265 265 264 264 263 263 262 262 261 261 261 261 260 260 260 261 261 261 261 261 261 261
312 312 312 312 313 313 312 311 311 310 309 309 307 306 305 304 303 302 302 301 300 300 299 299 299 298 298 298 298 299 299 298 297 295 294 293 292 292 292 292 291 288 286 284 282 280 279 277 275 273 272 271 270 270 269 269 268 268 267 266 265 265 265 265 265 265 265 264 264 263 263 263 262 262 262 261 261 260 260 260 260 260 260 260 260 260
312 312 312 312 313 313 311 310 309 308 307 307 305 304 303 302 302 302 301 301 300 299 299 299 298 298 299 299 299 299 298 298 297 295 294 293 292 292 292 291 290 289 287 285 283 281 279 278 277 275 274 272 271 269 268 268 267 267 267 267 266 266 265 265 265 265 265 265 264 264 263 262 262 262 262 262 262 262 261 261 260 260 260 260 260 259
313 313 313 312 313 312 310 308 307 306 306 305 303 302 302 302 302 302 301 301 300 300 300 299 299 299 299 299 299 299 298 297 296 295 294 293 292 293 292 291 290 289 288 286 284 282 280 279 277 276 275 274 272 271 269 268 267 267 267 267 267 267 267 267 266 265 265 264 264 264 264 263 262 261 261 260 260 260 261 261 261 260 260 260 259 259
314 313 313 312 311 311 309 307 306 305 305 304 303 302 302 302 302 302 302 302 302 301 300 299 299 300 300 300 299 298 296 296 295 294 293 292 292 292 292 291 290 289 288 287 285 283 282 279 277 276 275 274 274 272 271 270 268 267 267 266 266 267 267 267 267 267 266 266 265 265 264 264 264 263 262 261 260 259 259 259 259 259 259 259 259 259
314 313 312 311 310 309 308 307 306 306 305 304 304 303 303 303 303 304 303 303 302 301 300 300 300 300 300 299 298 297 296 295 295 294 292 292 292 292 291 290 289 288 287 286 285 284 282 280 279 277 276 275 273 272 272 271 270 269 268 267 267 266 265 265 265 266 266 266 265 265 265 265 264 263 262 262 261 260 259 258 258 258 258 258 258 258
313 312 311 310 310 309 309 308 307 307 306 306 305 305 305 305 305 304 303 302 300 299 299 300 301 301 300 298 297 297 296 295 294 293 292 293 293 292 291 290 289 288 287 286 285 284 283 282 280 279 278 276 275 273 272 271 270 269 269 268 267 266 265 264 264 264 264 265 264 264 264 264 264 263 262 262 262 261 261 260 259 259 258 258 257 257
312 311 310 310 310 310 309 309 309 308 308 307 307 307 307 307 306 304 303 302 300 300 301 302 301 300 299 298 298 297 297 297 296 295 294 294 294 293 292 291 290 289 288 287 285 284 283 282 281 279 278 277 276 275 273 272 271 270 270 270 269 268 267 266 265 265 265 265 265 265 264 263 263 263 263 263 263 263 263 263 262 261 260 259 258 257
311 311 311 311 311 310 310 310 310 310 309 309 309 309 308 307 306 305 304 302 301 301 302 301 300 299 298 298 297 297 298 298 297 295 294 294 293 293 292 292 290 290 289 287 286 285 283 282 281 280 279 278 277 276 275 274 274 273 272 272 271 269 268 267 266 266 266 265 266 266 266 265 265 265 265 265 265 265 264 264 264 263 262 261 260 259
312 312 311 311 312 311 311 312 312 311 310 310 310 310 309 308 307 305 304 304 303 302 301 300 299 299 297 296 296 296 297 297 296 294 293 292 292 292 291 291 290 289 289 288 287 286 285 284 283 281 280 279 278 277 276 276 275 274 273 272 271 270 269 268 266 266 265 265 265 265 265 266 266 266 267 267 266 266 265 264 263 263 262 262 261 261
312 312 313 313 313 313 313 313 313 312 312 313 312 311 310 309 308 307 306 307 305 303 302 301 300 300 298 298 297 297 298 297 295 293 292 291 291 291 290 290 289 289 289 288 287 287 286 285 283 282 281 279 278 277 276 276 275 274 272 271 270 270 269 269 268 267 267 266 266 266 266 266 266 266 267 267 266 266 265 264 263 262 262 262 262 261
314 314 314 315 315 315 315 315 314 314 315 315 313 312 311 311 310 309 309 308 306 304 303 302 301 301 301 300 300 300 300 298 296 294 292 293 293 292 290 290 289 289 289 289 288 288 287 286 284 283 282 280 279 278 277 277 276 274 273 273 272 271 271 270 269 269 268 268 267 267 267 266 266 267 267 267 266 266 265 264 263 262 262 261 261 260
316 317 317 317 317 317 317 316 315 315 316 315 314 313 312 312 311 310 310 309 307 306 305 304 303 303 302 302 302 302 301 299 297 296 294 294 293 291 290 290 289 289 289 289 289 289 288 287 285 284 283 282 281 281 280 280 279 279 277 276 274 273 273 272 271 270 269 268 267 267 267 266 266 266 266 266 266 265 265 264 263 262 261 260 260 259
319 320 320 320 320 319 318 317 317 317 317 316 315 314 313 313 312 312 311 311 309 308 306 306 306 305 304 303 303 302 301 300 299 297 296 295 293 292 291 290 289 289 289 289 289 288 287 286 285 284 283 283 283 283 282 282 281 280 279 277 276 275 273 273 272 271 270 269 268 268 268 267 267 267 266 265 265 265 265 265 263 262 261 260 260 259
322 322 322 322 322 321 320 319 319 319 319 317 316 315 315 315 314 313 313 312 311 310 309 309 308 307 306 305 304 304 303 302 300 298 297 295 294 294 292 291 290 289 289 289 288 287 286 285 284 283 283 283 283 283 282 282 280 279 277 277 276 275 274 273 273 272 271 271 271 270 269 269 268 268 267 266 266 265 265 265 265 263 262 260 259 259
323 324 324 324 324 323 322 321 322 322 321 320 318 318 318 317 316 316 315 315 314 312 311 311 311 310 309 308 307 307 306 304 303 300 298 297 296 296 294 293 291 290 289 288 286 286 285 285 284 283 283 283 282 282 281 281 279 278 278 278 277 276 276 275 274 274 273 273 272 271 270 269 269 269 269 268 267 266 265 265 265 264 263 262 261 260
325 325 326 326 326 325 324 325 325 325 323 321 321 321 321 320 320 319 319 319 318 316 315 315 314 313 312 311 310 309 308 306 305 303 301 300 299 298 297 295 294 293 291 289 287 286 286 285 284 284 284 283 283 282 282 281 280 281 281 279 279 279 278 277 276 275 274 274 273 272 272 271 270 270 270 269 269 268 266 265 264 264 264 264 263 262
326 327 327 328 328 327 326 326 326 325 323 322 322 323 322 321 321 320 320 319 319 318 318 317 317 316 314 313 312 311 310 309 308 306 304 303 301 300 299 298 296 294 292 291 290 289 289 288 287 286 285 284 284 284 283 283 283 283 282 281 280 280 279 278 277 276 275 274 273 273 273 272 271 271 270 270 269 268 268 266 265 265 264 264 264 264
328 328 328 329 328 328 328 327 326 325 322 321 322 322 321 322 322 321 321 320 321 320 319 318 318 317 315 314 312 312 311 309 308 308 306 304 303 302 302 300 298 297 295 294 293 292 291 290 289 288 287 286 286 285 285 285 284 283 282 281 282 281 280 279 278 277 276 275 274 273 272 272 271 271 270 270 269 268 268 267 266 265 265 264 264 264
328 328 329 330 330 329 329 327 326 325 324 323 323 323 323 324 325 323 322 322 322 322 321 320 319 318 317 315 313 312 311 309 308 308 306 305 305 304 304 302 301 299 298 297 296 294 292 291 290 290 289 288 287 287 286 285 284 282 282 283 282 281 281 280 279 278 277 275 274 273 272 271 271 271 270 270 269 268 268 267 266 265 265 264 263 263
330 330 331 332 331 330 329 327 326 326 326 324 324 324 324 325 325 324 323 323 323 322 322 321 321 320 319 316 314 313 312 309 308 307 307 306 306 305 304 303 302 301 300 299 297 295 293 293 292 291 290 289 288 288 287 285 284 283 284 284 283 283 282 282 281 280 278 276 275 273 272 272 272 271 271 270 270 269 268 267 266 266 265 264 263 263
331 332 332 332 331 331 330 328 328 328 327 326 325 324 325 325 326 325 325 325 324 324 324 324 324 323 321 319 317 315 314 312 310 309 308 307 306 306 305 304 303 302 301 298 297 296 295 294 293 292 291 291 290 289 288 287 286 286 286 286 285 284 283 282 282 280 279 277 276 275 274 274 274 273 272 272 271 270 269 268 267 266 265 264 263 263
332 332 332 333 333 333 332 331 329 329 329 328 327 327 327 328 328 328 328 327 327 326 327 327 326 325 324 322 320 319 317 315 312 311 309 308 308 307 306 306 305 303 301 300 299 298 297 296 295 294 294 294 293 292 291 290 289 289 288 287 286 285 284 283 282 280 279 278 278 277 276 275 275 275 274 273 272 271 270 269 268 267 265 264 264 264